Date_Time,Julian_Date,Latitude,Longitude,Instrument_Depth,U,V,Speed,Direction
(yyyy-mm-dd hh:mn:ss UTC),(JD),(+ deg. North),(+ deg. East),(m),(cm/s),(cm/s),(cm/s),(deg True)
1982-01-27 20:00:00 UTC,2444997.333333,28.7317,-95.2428,0215,-0.10,-6.00,6.0000,181.0000
1982-01-27 20:30:00 UTC,2444997.354167,28.7317,-95.2428,0215,-0.31,-5.99,6.0000,183.0000
1982-01-27 21:00:00 UTC,2444997.375000,28.7317,-95.2428,0215,-0.31,-5.99,6.0000,183.0000
1982-01-27 21:30:00 UTC,2444997.395833,28.7317,-95.2428,0215,-0.21,-6.00,6.0000,182.0000
1982-01-27 22:00:00 UTC,2444997.416667,28.7317,-95.2428,0215,-0.31,-5.99,6.0000,183.0000
1982-01-27 22:30:00 UTC,2444997.437500,28.7317,-95.2428,0215,-0.37,-6.99,7.0000,183.0000
1982-01-27 23:00:00 UTC,2444997.458333,28.7317,-95.2428,0215,-0.49,-6.98,7.0000,184.0000
1982-01-27 23:30:00 UTC,2444997.479167,28.7317,-95.2428,0215,-0.97,-7.94,8.0000,187.0000
1982-01-28 00:00:00 UTC,2444997.500000,28.7317,-95.2428,0215,-1.11,-7.92,8.0000,188.0000
1982-01-28 00:30:00 UTC,2444997.520833,28.7317,-95.2428,0215,-0.97,-7.94,8.0000,187.0000
1982-01-28 01:00:00 UTC,2444997.541667,28.7317,-95.2428,0215,-0.97,-7.94,8.0000,187.0000
1982-01-28 01:30:00 UTC,2444997.562500,28.7317,-95.2428,0215,-1.56,-8.86,9.0000,190.0000
1982-01-28 02:00:00 UTC,2444997.583333,28.7317,-95.2428,0215,-1.72,-8.83,9.0000,191.0000
1982-01-28 02:30:00 UTC,2444997.604167,28.7317,-95.2428,0215,-1.72,-8.83,9.0000,191.0000
1982-01-28 03:00:00 UTC,2444997.625000,28.7317,-95.2428,0215,-1.25,-7.90,8.0000,189.0000
1982-01-28 03:30:00 UTC,2444997.645833,28.7317,-95.2428,0215,-0.61,-6.97,7.0000,185.0000
1982-01-28 04:00:00 UTC,2444997.666667,28.7317,-95.2428,0215,-0.21,-6.00,6.0000,182.0000
1982-01-28 04:30:00 UTC,2444997.687500,28.7317,-95.2428,0215,0.09,-5.00,5.0000,179.0000
1982-01-28 05:00:00 UTC,2444997.708333,28.7317,-95.2428,0215,0.17,-5.00,5.0000,178.0000
1982-01-28 05:30:00 UTC,2444997.729167,28.7317,-95.2428,0215,0.21,-6.00,6.0000,178.0000
1982-01-28 06:00:00 UTC,2444997.750000,28.7317,-95.2428,0215,0.17,-5.00,5.0000,178.0000
1982-01-28 06:30:00 UTC,2444997.770833,28.7317,-95.2428,0215,0.26,-4.99,5.0000,177.0000
1982-01-28 07:00:00 UTC,2444997.791667,28.7317,-95.2428,0215,0.44,-4.98,5.0000,175.0000
1982-01-28 07:30:00 UTC,2444997.812500,28.7317,-95.2428,0215,0.26,-4.99,5.0000,177.0000
1982-01-28 08:00:00 UTC,2444997.833333,28.7317,-95.2428,0215,-0.07,-4.00,4.0000,181.0000
1982-01-28 08:30:00 UTC,2444997.854167,28.7317,-95.2428,0215,0.17,-5.00,5.0000,178.0000
1982-01-28 09:00:00 UTC,2444997.875000,28.7317,-95.2428,0215,0.61,-4.96,5.0000,173.0000
1982-01-28 09:30:00 UTC,2444997.895833,28.7317,-95.2428,0215,0.70,-4.95,5.0000,172.0000
1982-01-28 10:00:00 UTC,2444997.916667,28.7317,-95.2428,0215,0.44,-4.98,5.0000,175.0000
1982-01-28 10:30:00 UTC,2444997.937500,28.7317,-95.2428,0215,0.21,-6.00,6.0000,178.0000
1982-01-28 11:00:00 UTC,2444997.958333,28.7317,-95.2428,0215,-0.21,-6.00,6.0000,182.0000
1982-01-28 11:30:00 UTC,2444997.979167,28.7317,-95.2428,0215,-0.73,-6.96,7.0000,186.0000
1982-01-28 12:00:00 UTC,2444998.000000,28.7317,-95.2428,0215,-0.73,-6.96,7.0000,186.0000
1982-01-28 12:30:00 UTC,2444998.020833,28.7317,-95.2428,0215,-0.85,-6.95,7.0000,187.0000
1982-01-28 13:00:00 UTC,2444998.041667,28.7317,-95.2428,0215,-0.85,-6.95,7.0000,187.0000
1982-01-28 13:30:00 UTC,2444998.062500,28.7317,-95.2428,0215,-0.52,-5.98,6.0000,185.0000
1982-01-28 14:00:00 UTC,2444998.083333,28.7317,-95.2428,0215,-0.21,-6.00,6.0000,182.0000
1982-01-28 14:30:00 UTC,2444998.104167,28.7317,-95.2428,0215,-0.10,-6.00,6.0000,181.0000
1982-01-28 15:00:00 UTC,2444998.125000,28.7317,-95.2428,0215,0.09,-5.00,5.0000,179.0000
1982-01-28 15:30:00 UTC,2444998.145833,28.7317,-95.2428,0215,0.52,-4.97,5.0000,174.0000
1982-01-28 16:00:00 UTC,2444998.166667,28.7317,-95.2428,0215,1.04,-4.89,5.0000,168.0000
1982-01-28 16:30:00 UTC,2444998.187500,28.7317,-95.2428,0215,1.38,-4.81,5.0000,164.0000
1982-01-28 17:00:00 UTC,2444998.208333,28.7317,-95.2428,0215,1.29,-4.83,5.0000,165.0000
1982-01-28 17:30:00 UTC,2444998.229167,28.7317,-95.2428,0215,0.95,-4.91,5.0000,169.0000
1982-01-28 18:00:00 UTC,2444998.250000,28.7317,-95.2428,0215,0.69,-3.94,4.0000,170.0000
1982-01-28 18:30:00 UTC,2444998.270833,28.7317,-95.2428,0215,1.10,-3.85,4.0000,164.0000
1982-01-28 19:00:00 UTC,2444998.291667,28.7317,-95.2428,0215,0.88,-2.87,3.0000,163.0000
1982-01-28 19:30:00 UTC,2444998.312500,28.7317,-95.2428,0215,0.69,-3.94,4.0000,170.0000
1982-01-28 20:00:00 UTC,2444998.333333,28.7317,-95.2428,0215,0.26,-2.99,3.0000,175.0000
1982-01-28 20:30:00 UTC,2444998.354167,28.7317,-95.2428,0215,0.31,-2.98,3.0000,174.0000
1982-01-28 21:00:00 UTC,2444998.375000,28.7317,-95.2428,0215,0.62,-2.93,3.0000,168.0000
1982-01-28 21:30:00 UTC,2444998.395833,28.7317,-95.2428,0215,1.03,-2.82,3.0000,160.0000
1982-01-28 22:00:00 UTC,2444998.416667,28.7317,-95.2428,0215,1.24,-3.80,4.0000,162.0000
1982-01-28 22:30:00 UTC,2444998.437500,28.7317,-95.2428,0215,0.76,-3.93,4.0000,169.0000
1982-01-28 23:00:00 UTC,2444998.458333,28.7317,-95.2428,0215,0.52,-4.97,5.0000,174.0000
1982-01-28 23:30:00 UTC,2444998.479167,28.7317,-95.2428,0215,0.35,-4.99,5.0000,176.0000
1982-01-29 00:00:00 UTC,2444998.500000,28.7317,-95.2428,0215,0.14,-4.00,4.0000,178.0000
1982-01-29 00:30:00 UTC,2444998.520833,28.7317,-95.2428,0215,-0.07,-4.00,4.0000,181.0000
1982-01-29 01:00:00 UTC,2444998.541667,28.7317,-95.2428,0215,-0.28,-3.99,4.0000,184.0000
1982-01-29 01:30:00 UTC,2444998.562500,28.7317,-95.2428,0215,-0.44,-4.98,5.0000,185.0000
1982-01-29 02:00:00 UTC,2444998.583333,28.7317,-95.2428,0215,-0.85,-6.95,7.0000,187.0000
1982-01-29 02:30:00 UTC,2444998.604167,28.7317,-95.2428,0215,-1.25,-7.90,8.0000,189.0000
1982-01-29 03:00:00 UTC,2444998.625000,28.7317,-95.2428,0215,-1.56,-8.86,9.0000,190.0000
1982-01-29 03:30:00 UTC,2444998.645833,28.7317,-95.2428,0215,-1.25,-7.90,8.0000,189.0000
1982-01-29 04:00:00 UTC,2444998.666667,28.7317,-95.2428,0215,-1.11,-7.92,8.0000,188.0000
1982-01-29 04:30:00 UTC,2444998.687500,28.7317,-95.2428,0215,-0.97,-6.93,7.0000,188.0000
1982-01-29 05:00:00 UTC,2444998.708333,28.7317,-95.2428,0215,-0.73,-5.96,6.0000,187.0000
1982-01-29 05:30:00 UTC,2444998.729167,28.7317,-95.2428,0215,-0.35,-4.99,5.0000,184.0000
1982-01-29 06:00:00 UTC,2444998.750000,28.7317,-95.2428,0215,-0.16,-3.00,3.0000,183.0000
1982-01-29 06:30:00 UTC,2444998.770833,28.7317,-95.2428,0215,-0.07,-2.00,2.0000,182.0000
1982-01-29 07:00:00 UTC,2444998.791667,28.7317,-95.2428,0215,0.14,-2.00,2.0000,176.0000
1982-01-29 07:30:00 UTC,2444998.812500,28.7317,-95.2428,0215,0.34,-0.94,1.0000,160.0000
1982-01-29 08:00:00 UTC,2444998.833333,28.7317,-95.2428,0215,1.29,-1.53,2.0000,140.0000
1982-01-29 08:30:00 UTC,2444998.854167,28.7317,-95.2428,0215,1.60,-1.20,2.0000,127.0000
1982-01-29 09:00:00 UTC,2444998.875000,28.7317,-95.2428,0215,1.96,-0.42,2.0000,102.0000
1982-01-29 09:30:00 UTC,2444998.895833,28.7317,-95.2428,0215,2.96,0.47,3.0000,81.0000
1982-01-29 10:00:00 UTC,2444998.916667,28.7317,-95.2428,0215,3.86,1.04,4.0000,75.0000
1982-01-29 10:30:00 UTC,2444998.937500,28.7317,-95.2428,0215,3.90,0.90,4.0000,77.0000
1982-01-29 11:00:00 UTC,2444998.958333,28.7317,-95.2428,0215,2.95,0.52,3.0000,80.0000
1982-01-29 11:30:00 UTC,2444998.979167,28.7317,-95.2428,0215,2.90,0.78,3.0000,75.0000
1982-01-29 12:00:00 UTC,2444999.000000,28.7317,-95.2428,0215,1.84,0.78,2.0000,67.0000
1982-01-29 12:30:00 UTC,2444999.020833,28.7317,-95.2428,0215,1.75,0.97,2.0000,61.0000
1982-01-29 13:00:00 UTC,2444999.041667,28.7317,-95.2428,0215,1.81,0.85,2.0000,65.0000
1982-01-29 13:30:00 UTC,2444999.062500,28.7317,-95.2428,0215,1.00,0.07,1.0000,86.0000
1982-01-29 14:00:00 UTC,2444999.083333,28.7317,-95.2428,0215,0.71,-0.71,1.0000,135.0000
1982-01-29 14:30:00 UTC,2444999.104167,28.7317,-95.2428,0215,0.39,-0.92,1.0000,157.0000
1982-01-29 15:00:00 UTC,2444999.125000,28.7317,-95.2428,0215,0.47,-0.88,1.0000,152.0000
1982-01-29 15:30:00 UTC,2444999.145833,28.7317,-95.2428,0215,0.97,0.26,1.0000,75.0000
1982-01-29 16:00:00 UTC,2444999.166667,28.7317,-95.2428,0215,0.85,0.53,1.0000,58.0000
1982-01-29 16:30:00 UTC,2444999.187500,28.7317,-95.2428,0215,0.97,0.24,1.0000,76.0000
1982-01-29 17:00:00 UTC,2444999.208333,28.7317,-95.2428,0215,0.36,0.93,1.0000,21.0000
1982-01-29 17:30:00 UTC,2444999.229167,28.7317,-95.2428,0215,0.07,2.00,2.0000,2.0000
1982-01-29 18:00:00 UTC,2444999.250000,28.7317,-95.2428,0215,-0.16,3.00,3.0000,357.0000
1982-01-29 18:30:00 UTC,2444999.270833,28.7317,-95.2428,0215,-0.78,1.84,2.0000,337.0000
1982-01-29 19:00:00 UTC,2444999.291667,28.7317,-95.2428,0215,-1.66,1.12,2.0000,304.0000
1982-01-29 19:30:00 UTC,2444999.312500,28.7317,-95.2428,0215,-2.98,0.37,3.0000,277.0000
1982-01-29 20:00:00 UTC,2444999.333333,28.7317,-95.2428,0215,-3.99,0.28,4.0000,274.0000
1982-01-29 20:30:00 UTC,2444999.354167,28.7317,-95.2428,0215,-4.81,1.38,5.0000,286.0000
1982-01-29 21:00:00 UTC,2444999.375000,28.7317,-95.2428,0215,-4.67,1.79,5.0000,291.0000
1982-01-29 21:30:00 UTC,2444999.395833,28.7317,-95.2428,0215,-5.85,1.35,6.0000,283.0000
1982-01-29 22:00:00 UTC,2444999.416667,28.7317,-95.2428,0215,-6.99,0.37,7.0000,273.0000
1982-01-29 22:30:00 UTC,2444999.437500,28.7317,-95.2428,0215,-7.94,-0.97,8.0000,263.0000
1982-01-29 23:00:00 UTC,2444999.458333,28.7317,-95.2428,0215,-8.61,-2.63,9.0000,253.0000
1982-01-29 23:30:00 UTC,2444999.479167,28.7317,-95.2428,0215,-6.93,-4.00,8.0000,240.0000
1982-01-30 00:00:00 UTC,2444999.500000,28.7317,-95.2428,0215,-4.50,-5.36,7.0000,220.0000
1982-01-30 00:30:00 UTC,2444999.520833,28.7317,-95.2428,0215,-3.07,-6.29,7.0000,206.0000
1982-01-30 01:00:00 UTC,2444999.541667,28.7317,-95.2428,0215,-1.87,-4.64,5.0000,202.0000
1982-01-30 01:30:00 UTC,2444999.562500,28.7317,-95.2428,0215,-1.87,-4.64,5.0000,202.0000
1982-01-30 02:00:00 UTC,2444999.583333,28.7317,-95.2428,0215,-2.62,-6.49,7.0000,202.0000
1982-01-30 02:30:00 UTC,2444999.604167,28.7317,-95.2428,0215,-3.52,-8.28,9.0000,203.0000
1982-01-30 03:00:00 UTC,2444999.625000,28.7317,-95.2428,0215,-3.23,-8.40,9.0000,201.0000
1982-01-30 03:30:00 UTC,2444999.645833,28.7317,-95.2428,0215,-2.78,-8.56,9.0000,198.0000
1982-01-30 04:00:00 UTC,2444999.666667,28.7317,-95.2428,0215,-2.48,-8.65,9.0000,196.0000
1982-01-30 04:30:00 UTC,2444999.687500,28.7317,-95.2428,0215,-2.18,-8.73,9.0000,194.0000
1982-01-30 05:00:00 UTC,2444999.708333,28.7317,-95.2428,0215,-2.25,-9.74,10.0000,193.0000
1982-01-30 05:30:00 UTC,2444999.729167,28.7317,-95.2428,0215,-3.58,-10.40,11.0000,199.0000
1982-01-30 06:00:00 UTC,2444999.750000,28.7317,-95.2428,0215,-5.26,-10.79,12.0000,206.0000
1982-01-30 06:30:00 UTC,2444999.770833,28.7317,-95.2428,0215,-5.63,-10.60,12.0000,208.0000
1982-01-30 07:00:00 UTC,2444999.791667,28.7317,-95.2428,0215,-5.67,-9.43,11.0000,211.0000
1982-01-30 07:30:00 UTC,2444999.812500,28.7317,-95.2428,0215,-5.99,-9.23,11.0000,213.0000
1982-01-30 08:00:00 UTC,2444999.833333,28.7317,-95.2428,0215,-5.00,-8.66,10.0000,210.0000
1982-01-30 08:30:00 UTC,2444999.854167,28.7317,-95.2428,0215,-4.99,-9.80,11.0000,207.0000
1982-01-30 09:00:00 UTC,2444999.875000,28.7317,-95.2428,0215,-3.76,-10.34,11.0000,200.0000
1982-01-30 09:30:00 UTC,2444999.895833,28.7317,-95.2428,0215,-1.72,-10.86,11.0000,189.0000
1982-01-30 10:00:00 UTC,2444999.916667,28.7317,-95.2428,0215,-1.53,-10.89,11.0000,188.0000
1982-01-30 10:30:00 UTC,2444999.937500,28.7317,-95.2428,0215,-2.49,-11.74,12.0000,192.0000
1982-01-30 11:00:00 UTC,2444999.958333,28.7317,-95.2428,0215,-1.05,-11.95,12.0000,185.0000
1982-01-30 11:30:00 UTC,2444999.979167,28.7317,-95.2428,0215,1.13,-12.95,13.0000,175.0000
1982-01-30 12:00:00 UTC,2445000.000000,28.7317,-95.2428,0215,1.13,-12.95,13.0000,175.0000
1982-01-30 12:30:00 UTC,2445000.020833,28.7317,-95.2428,0215,-0.23,-13.00,13.0000,181.0000
1982-01-30 13:00:00 UTC,2445000.041667,28.7317,-95.2428,0215,0.21,-12.00,12.0000,179.0000
1982-01-30 13:30:00 UTC,2445000.062500,28.7317,-95.2428,0215,1.05,-11.95,12.0000,175.0000
1982-01-30 14:00:00 UTC,2445000.083333,28.7317,-95.2428,0215,0.63,-11.98,12.0000,177.0000
1982-01-30 14:30:00 UTC,2445000.104167,28.7317,-95.2428,0215,-0.68,-12.98,13.0000,183.0000
1982-01-30 15:00:00 UTC,2445000.125000,28.7317,-95.2428,0215,-1.95,-13.86,14.0000,188.0000
1982-01-30 15:30:00 UTC,2445000.145833,28.7317,-95.2428,0215,-2.92,-12.67,13.0000,193.0000
1982-01-30 16:00:00 UTC,2445000.166667,28.7317,-95.2428,0215,-4.66,-12.14,13.0000,201.0000
1982-01-30 16:30:00 UTC,2445000.187500,28.7317,-95.2428,0215,-7.08,-10.90,13.0000,213.0000
1982-01-30 17:00:00 UTC,2445000.208333,28.7317,-95.2428,0215,-8.82,-12.14,15.0000,216.0000
1982-01-30 17:30:00 UTC,2445000.229167,28.7317,-95.2428,0215,-7.76,-13.99,16.0000,209.0000
1982-01-30 18:00:00 UTC,2445000.250000,28.7317,-95.2428,0215,-7.45,-15.28,17.0000,206.0000
1982-01-30 18:30:00 UTC,2445000.270833,28.7317,-95.2428,0215,-10.07,-14.92,18.0000,214.0000
1982-01-30 19:00:00 UTC,2445000.291667,28.7317,-95.2428,0215,-11.57,-13.79,18.0000,220.0000
1982-01-30 19:30:00 UTC,2445000.312500,28.7317,-95.2428,0215,-9.75,-13.93,17.0000,215.0000
1982-01-30 20:00:00 UTC,2445000.333333,28.7317,-95.2428,0215,-7.01,-14.38,16.0000,206.0000
1982-01-30 20:30:00 UTC,2445000.354167,28.7317,-95.2428,0215,-6.76,-14.50,16.0000,205.0000
1982-01-30 21:00:00 UTC,2445000.375000,28.7317,-95.2428,0215,-7.01,-14.38,16.0000,206.0000
1982-01-30 21:30:00 UTC,2445000.395833,28.7317,-95.2428,0215,-7.18,-15.41,17.0000,205.0000
1982-01-30 22:00:00 UTC,2445000.416667,28.7317,-95.2428,0215,-7.32,-16.44,18.0000,204.0000
1982-01-30 22:30:00 UTC,2445000.437500,28.7317,-95.2428,0215,-8.13,-18.27,20.0000,204.0000
1982-01-30 23:00:00 UTC,2445000.458333,28.7317,-95.2428,0215,-10.80,-20.31,23.0000,208.0000
1982-01-30 23:30:00 UTC,2445000.479167,28.7317,-95.2428,0215,-10.80,-20.31,23.0000,208.0000
1982-01-31 00:00:00 UTC,2445000.500000,28.7317,-95.2428,0215,-9.08,-17.82,20.0000,207.0000
1982-01-31 00:30:00 UTC,2445000.520833,28.7317,-95.2428,0215,-7.03,-16.57,18.0000,203.0000
1982-01-31 01:00:00 UTC,2445000.541667,28.7317,-95.2428,0215,-4.96,-17.30,18.0000,196.0000
1982-01-31 01:30:00 UTC,2445000.562500,28.7317,-95.2428,0215,-3.60,-15.59,16.0000,193.0000
1982-01-31 02:00:00 UTC,2445000.583333,28.7317,-95.2428,0215,-4.02,-12.36,13.0000,198.0000
1982-01-31 02:30:00 UTC,2445000.604167,28.7317,-95.2428,0215,-3.76,-10.34,11.0000,200.0000
1982-01-31 03:00:00 UTC,2445000.625000,28.7317,-95.2428,0215,-2.76,-9.61,10.0000,196.0000
1982-01-31 03:30:00 UTC,2445000.645833,28.7317,-95.2428,0215,-2.47,-10.72,11.0000,193.0000
1982-01-31 04:00:00 UTC,2445000.666667,28.7317,-95.2428,0215,-2.76,-9.61,10.0000,196.0000
1982-01-31 04:30:00 UTC,2445000.687500,28.7317,-95.2428,0215,-2.02,-8.77,9.0000,193.0000
1982-01-31 05:00:00 UTC,2445000.708333,28.7317,-95.2428,0215,-0.28,-8.00,8.0000,182.0000
1982-01-31 05:30:00 UTC,2445000.729167,28.7317,-95.2428,0215,0.28,-8.00,8.0000,178.0000
1982-01-31 06:00:00 UTC,2445000.750000,28.7317,-95.2428,0215,-0.14,-8.00,8.0000,181.0000
1982-01-31 06:30:00 UTC,2445000.770833,28.7317,-95.2428,0215,-0.49,-6.98,7.0000,184.0000
1982-01-31 07:00:00 UTC,2445000.791667,28.7317,-95.2428,0215,-0.24,-7.00,7.0000,182.0000
1982-01-31 07:30:00 UTC,2445000.812500,28.7317,-95.2428,0215,0.31,-5.99,6.0000,177.0000
1982-01-31 08:00:00 UTC,2445000.833333,28.7317,-95.2428,0215,0.67,-2.92,3.0000,167.0000
1982-01-31 08:30:00 UTC,2445000.854167,28.7317,-95.2428,0215,2.93,-0.62,3.0000,102.0000
1982-01-31 09:00:00 UTC,2445000.875000,28.7317,-95.2428,0215,4.92,0.87,5.0000,80.0000
1982-01-31 09:30:00 UTC,2445000.895833,28.7317,-95.2428,0215,5.52,2.34,6.0000,67.0000
1982-01-31 10:00:00 UTC,2445000.916667,28.7317,-95.2428,0215,6.02,6.69,9.0000,42.0000
1982-01-31 10:30:00 UTC,2445000.937500,28.7317,-95.2428,0215,7.62,11.74,14.0000,33.0000
1982-01-31 11:00:00 UTC,2445000.958333,28.7317,-95.2428,0215,7.26,14.26,16.0000,27.0000
1982-01-31 11:30:00 UTC,2445000.979167,28.7317,-95.2428,0215,5.08,11.97,13.0000,23.0000
1982-01-31 12:00:00 UTC,2445001.000000,28.7317,-95.2428,0215,3.80,8.16,9.0000,25.0000
1982-01-31 12:30:00 UTC,2445001.020833,28.7317,-95.2428,0215,3.26,9.46,10.0000,19.0000
1982-01-31 13:00:00 UTC,2445001.041667,28.7317,-95.2428,0215,3.37,14.62,15.0000,13.0000
1982-01-31 13:30:00 UTC,2445001.062500,28.7317,-95.2428,0215,4.05,17.54,18.0000,13.0000
1982-01-31 14:00:00 UTC,2445001.083333,28.7317,-95.2428,0215,5.18,19.32,20.0000,15.0000
1982-01-31 14:30:00 UTC,2445001.104167,28.7317,-95.2428,0215,7.11,21.87,23.0000,18.0000
1982-01-31 15:00:00 UTC,2445001.125000,28.7317,-95.2428,0215,8.99,22.25,24.0000,22.0000
1982-01-31 15:30:00 UTC,2445001.145833,28.7317,-95.2428,0215,10.58,23.75,26.0000,24.0000
1982-01-31 16:00:00 UTC,2445001.166667,28.7317,-95.2428,0215,11.39,25.58,28.0000,24.0000
1982-01-31 16:30:00 UTC,2445001.187500,28.7317,-95.2428,0215,10.49,25.96,28.0000,22.0000
1982-01-31 17:00:00 UTC,2445001.208333,28.7317,-95.2428,0215,9.23,25.37,27.0000,20.0000
1982-01-31 17:30:00 UTC,2445001.229167,28.7317,-95.2428,0215,9.37,23.18,25.0000,22.0000
1982-01-31 18:00:00 UTC,2445001.250000,28.7317,-95.2428,0215,8.62,21.33,23.0000,22.0000
1982-01-31 18:30:00 UTC,2445001.270833,28.7317,-95.2428,0215,8.24,20.40,22.0000,22.0000
1982-01-31 19:00:00 UTC,2445001.291667,28.7317,-95.2428,0215,8.60,20.25,22.0000,23.0000
1982-01-31 19:30:00 UTC,2445001.312500,28.7317,-95.2428,0215,9.72,20.85,23.0000,25.0000
1982-01-31 20:00:00 UTC,2445001.333333,28.7317,-95.2428,0215,10.08,20.67,23.0000,26.0000
1982-01-31 20:30:00 UTC,2445001.354167,28.7317,-95.2428,0215,9.99,19.60,22.0000,27.0000
1982-01-31 21:00:00 UTC,2445001.375000,28.7317,-95.2428,0215,9.39,17.66,20.0000,28.0000
1982-01-31 21:30:00 UTC,2445001.395833,28.7317,-95.2428,0215,9.70,17.49,20.0000,29.0000
1982-01-31 22:00:00 UTC,2445001.416667,28.7317,-95.2428,0215,9.79,16.29,19.0000,31.0000
1982-01-31 22:30:00 UTC,2445001.437500,28.7317,-95.2428,0215,9.54,15.26,18.0000,32.0000
1982-01-31 23:00:00 UTC,2445001.458333,28.7317,-95.2428,0215,9.75,13.93,17.0000,35.0000
1982-01-31 23:30:00 UTC,2445001.479167,28.7317,-95.2428,0215,9.63,12.78,16.0000,37.0000
1982-02-01 00:00:00 UTC,2445001.500000,28.7317,-95.2428,0215,9.23,11.82,15.0000,38.0000
1982-02-01 00:30:00 UTC,2445001.520833,28.7317,-95.2428,0215,9.44,11.66,15.0000,39.0000
1982-02-01 01:00:00 UTC,2445001.541667,28.7317,-95.2428,0215,9.84,11.32,15.0000,41.0000
1982-02-01 01:30:00 UTC,2445001.562500,28.7317,-95.2428,0215,10.42,10.79,15.0000,44.0000
1982-02-01 02:00:00 UTC,2445001.583333,28.7317,-95.2428,0215,10.24,9.55,14.0000,47.0000
1982-02-01 02:30:00 UTC,2445001.604167,28.7317,-95.2428,0215,9.96,8.36,13.0000,50.0000
1982-02-01 03:00:00 UTC,2445001.625000,28.7317,-95.2428,0215,8.43,7.07,11.0000,50.0000
1982-02-01 03:30:00 UTC,2445001.645833,28.7317,-95.2428,0215,7.43,6.69,10.0000,48.0000
1982-02-01 04:00:00 UTC,2445001.666667,28.7317,-95.2428,0215,6.25,6.47,9.0000,44.0000
1982-02-01 04:30:00 UTC,2445001.687500,28.7317,-95.2428,0215,4.41,5.44,7.0000,39.0000
1982-02-01 05:00:00 UTC,2445001.708333,28.7317,-95.2428,0215,3.36,4.97,6.0000,34.0000
1982-02-01 05:30:00 UTC,2445001.729167,28.7317,-95.2428,0215,2.91,5.25,6.0000,29.0000
1982-02-01 06:00:00 UTC,2445001.750000,28.7317,-95.2428,0215,2.34,5.52,6.0000,23.0000
1982-02-01 06:30:00 UTC,2445001.770833,28.7317,-95.2428,0215,2.62,6.49,7.0000,22.0000
1982-02-01 07:00:00 UTC,2445001.791667,28.7317,-95.2428,0215,2.85,6.39,7.0000,24.0000
1982-02-01 07:30:00 UTC,2445001.812500,28.7317,-95.2428,0215,2.74,6.44,7.0000,23.0000
1982-02-01 08:00:00 UTC,2445001.833333,28.7317,-95.2428,0215,2.28,6.62,7.0000,19.0000
1982-02-01 08:30:00 UTC,2445001.854167,28.7317,-95.2428,0215,1.81,6.76,7.0000,15.0000
1982-02-01 09:00:00 UTC,2445001.875000,28.7317,-95.2428,0215,1.94,7.76,8.0000,14.0000
1982-02-01 09:30:00 UTC,2445001.895833,28.7317,-95.2428,0215,2.07,7.73,8.0000,15.0000
1982-02-01 10:00:00 UTC,2445001.916667,28.7317,-95.2428,0215,1.80,7.79,8.0000,13.0000
1982-02-01 10:30:00 UTC,2445001.937500,28.7317,-95.2428,0215,1.53,7.85,8.0000,11.0000
1982-02-01 11:00:00 UTC,2445001.958333,28.7317,-95.2428,0215,1.80,7.79,8.0000,13.0000
1982-02-01 11:30:00 UTC,2445001.979167,28.7317,-95.2428,0215,2.16,6.66,7.0000,18.0000
1982-02-01 12:00:00 UTC,2445002.000000,28.7317,-95.2428,0215,1.75,3.60,4.0000,26.0000
1982-02-01 12:30:00 UTC,2445002.020833,28.7317,-95.2428,0215,0.85,0.53,1.0000,58.0000
1982-02-01 13:00:00 UTC,2445002.041667,28.7317,-95.2428,0215,-0.28,-1.98,2.0000,188.0000
1982-02-01 13:30:00 UTC,2445002.062500,28.7317,-95.2428,0215,-1.04,-3.86,4.0000,195.0000
1982-02-01 14:00:00 UTC,2445002.083333,28.7317,-95.2428,0215,-1.38,-4.81,5.0000,196.0000
1982-02-01 14:30:00 UTC,2445002.104167,28.7317,-95.2428,0215,-1.45,-5.82,6.0000,194.0000
1982-02-01 15:00:00 UTC,2445002.125000,28.7317,-95.2428,0215,-1.25,-5.87,6.0000,192.0000
1982-02-01 15:30:00 UTC,2445002.145833,28.7317,-95.2428,0215,-1.69,-6.79,7.0000,194.0000
1982-02-01 16:00:00 UTC,2445002.166667,28.7317,-95.2428,0215,-2.18,-8.73,9.0000,194.0000
1982-02-01 16:30:00 UTC,2445002.187500,28.7317,-95.2428,0215,-2.10,-10.80,11.0000,191.0000
1982-02-01 17:00:00 UTC,2445002.208333,28.7317,-95.2428,0215,-2.70,-12.72,13.0000,192.0000
1982-02-01 17:30:00 UTC,2445002.229167,28.7317,-95.2428,0215,-3.15,-13.64,14.0000,193.0000
1982-02-01 18:00:00 UTC,2445002.250000,28.7317,-95.2428,0215,-3.39,-13.58,14.0000,194.0000
1982-02-01 18:30:00 UTC,2445002.270833,28.7317,-95.2428,0215,-3.62,-13.52,14.0000,195.0000
1982-02-01 19:00:00 UTC,2445002.291667,28.7317,-95.2428,0215,-3.63,-14.55,15.0000,194.0000
1982-02-01 19:30:00 UTC,2445002.312500,28.7317,-95.2428,0215,-2.60,-14.77,15.0000,190.0000
1982-02-01 20:00:00 UTC,2445002.333333,28.7317,-95.2428,0215,-1.57,-14.92,15.0000,186.0000
1982-02-01 20:30:00 UTC,2445002.354167,28.7317,-95.2428,0215,-1.95,-15.88,16.0000,187.0000
1982-02-01 21:00:00 UTC,2445002.375000,28.7317,-95.2428,0215,-2.78,-15.76,16.0000,190.0000
1982-02-01 21:30:00 UTC,2445002.395833,28.7317,-95.2428,0215,-2.35,-14.82,15.0000,189.0000
1982-02-01 22:00:00 UTC,2445002.416667,28.7317,-95.2428,0215,-1.57,-14.92,15.0000,186.0000
1982-02-01 22:30:00 UTC,2445002.437500,28.7317,-95.2428,0215,-2.19,-17.87,18.0000,187.0000
1982-02-01 23:00:00 UTC,2445002.458333,28.7317,-95.2428,0215,-2.97,-18.77,19.0000,189.0000
1982-02-01 23:30:00 UTC,2445002.479167,28.7317,-95.2428,0215,-2.66,-16.79,17.0000,189.0000
1982-02-02 00:00:00 UTC,2445002.500000,28.7317,-95.2428,0215,-1.83,-14.89,15.0000,187.0000
1982-02-02 00:30:00 UTC,2445002.520833,28.7317,-95.2428,0215,-1.71,-13.90,14.0000,187.0000
1982-02-02 01:00:00 UTC,2445002.541667,28.7317,-95.2428,0215,-2.60,-14.77,15.0000,190.0000
1982-02-02 01:30:00 UTC,2445002.562500,28.7317,-95.2428,0215,-4.14,-15.45,16.0000,195.0000
1982-02-02 02:00:00 UTC,2445002.583333,28.7317,-95.2428,0215,-5.56,-17.12,18.0000,198.0000
1982-02-02 02:30:00 UTC,2445002.604167,28.7317,-95.2428,0215,-5.26,-17.21,18.0000,197.0000
1982-02-02 03:00:00 UTC,2445002.625000,28.7317,-95.2428,0215,-4.96,-17.30,18.0000,196.0000
1982-02-02 03:30:00 UTC,2445002.645833,28.7317,-95.2428,0215,-4.97,-16.26,17.0000,197.0000
1982-02-02 04:00:00 UTC,2445002.666667,28.7317,-95.2428,0215,-5.86,-17.02,18.0000,199.0000
1982-02-02 04:30:00 UTC,2445002.687500,28.7317,-95.2428,0215,-6.84,-18.79,20.0000,200.0000
1982-02-02 05:00:00 UTC,2445002.708333,28.7317,-95.2428,0215,-6.84,-19.86,21.0000,199.0000
1982-02-02 05:30:00 UTC,2445002.729167,28.7317,-95.2428,0215,-5.56,-17.12,18.0000,198.0000
1982-02-02 06:00:00 UTC,2445002.750000,28.7317,-95.2428,0215,-4.96,-17.30,18.0000,196.0000
1982-02-02 06:30:00 UTC,2445002.770833,28.7317,-95.2428,0215,-4.95,-21.44,22.0000,193.0000
1982-02-02 07:00:00 UTC,2445002.791667,28.7317,-95.2428,0215,-5.40,-23.38,24.0000,193.0000
1982-02-02 07:30:00 UTC,2445002.812500,28.7317,-95.2428,0215,-5.95,-22.22,23.0000,195.0000
1982-02-02 08:00:00 UTC,2445002.833333,28.7317,-95.2428,0215,-6.80,-20.92,22.0000,198.0000
1982-02-02 08:30:00 UTC,2445002.854167,28.7317,-95.2428,0215,-7.88,-20.54,22.0000,201.0000
1982-02-02 09:00:00 UTC,2445002.875000,28.7317,-95.2428,0215,-9.35,-21.01,23.0000,204.0000
1982-02-02 09:30:00 UTC,2445002.895833,28.7317,-95.2428,0215,-11.35,-22.28,25.0000,207.0000